This demonstration page uses our WeatherBlox Daily Observations layout. Learn more.

Left ArrowRight Arrow

Hourly Observations for December 2, 2019

Temp ( °F °C ) Dew Point ( °F °C ) Humidity (%) Winds ( mph kmh ) Pressure ( in mb ) Visibility ( mi km ) Precip ( " mm )
12:56 am 00:56 Clear 23 -5 16 -9 74 74 WNW 10 17 30.26 1025 10 16 0.00 0.00
1:56 am 01:56 Clear 21 -6 16 -9 80 80 NW 10 17 30.26 1025 10 16 0.00 0.00
2:56 am 02:56 Clear 21 -6 14 -10 74 74 NW 7 11 30.27 1025 10 16 0.00 0.00
3:56 am 03:56 Clear 19 -7 14 -10 79 79 NW 7 11 30.27 1025 10 16 0.00 0.00
4:56 am 04:56 Clear 19 -7 14 -10 79 79 NW 7 11 30.27 1025 10 16 0.00 0.00
5:56 am 05:56 Clear 19 -7 14 -10 79 79 NW 7 11 30.29 1026 10 16 0.00 0.00
6:56 am 06:56 Clear 19 -7 14 -10 79 79 WNW 7 11 30.31 1027 10 16 0.00 0.00
7:56 am 07:56 Sunny 19 -7 14 -10 79 79 ENE 3 6 30.28 1025 10 16 0.00 0.00
8:56 am 08:56 Sunny 23 -5 14 -10 68 68 Calm 30.28 1026 10 16 0.00 0.00
9:56 am 09:56 Sunny 27 -3 14 -10 59 59 WNW 5 7 30.29 1026 10 16 0.00 0.00
10:56 am 10:56 undefined N/A N/A N/A SSE 3 6 N/A 10 16 0.00 0.00
11:56 am 11:56 Sunny 32 0 16 -9 51 51 S 5 7 30.24 1024 10 16 0.00 0.00
12:56 pm 12:56 Sunny 36 2 18 -8 48 48 S 5 7 30.20 1023 10 16 0.00 0.00
1:56 pm 13:56 Sunny 39 4 18 -8 42 42 S 8 13 30.16 1021 10 16 0.00 0.00
2:56 pm 14:56 Sunny 41 5 16 -9 36 36 SSE 7 11 30.12 1020 10 16 0.00 0.00
3:56 pm 15:56 Mostly Sunny 39 4 18 -8 42 42 SE 8 13 30.11 1020 10 16 0.00 0.00
4:56 pm 16:56 Partly Cloudy 37 3 19 -7 48 48 SE 7 11 30.09 1019 10 16 0.00 0.00
5:56 pm 17:56 Partly Cloudy 36 2 19 -7 52 52 SSE 5 7 30.09 1019 10 16 0.00 0.00
6:56 pm 18:56 Partly Cloudy 34 1 19 -7 56 56 S 5 7 30.07 1018 10 16 0.00 0.00
7:56 pm 19:56 Mostly Cloudy 34 1 19 -7 56 56 SSE 7 11 30.05 1018 10 16 0.00 0.00
8:56 pm 20:56 Mostly Cloudy 36 2 18 -8 48 48 Calm 30.04 1017 10 16 0.00 0.00
9:56 pm 21:56 Mostly Cloudy 34 1 19 -7 56 56 ESE 3 6 30.02 1017 10 16 0.00 0.00
10:56 pm 22:56 Mostly Cloudy 36 2 19 -7 52 52 SSE 5 7 29.98 1015 10 16 0.00 0.00
11:56 pm 23:56 Mostly Cloudy 36 2 19 -7 52 52 VRB 3 6 29.97 1015 10 16 0.00 0.00

Powered by AerisWeather